Weather History for KTCC - December, 2012

Change the Weather History Date:

Friday, December 28, 2012

  Actual Average Record
Temperature  
Mean Temperature 27 °F -  
Max Temperature 37 °F 52 °F 74 °F (1980)
Min Temperature 17 °F 24 °F -3 °F (1924)
Degree Days  
Heating Degree Days 38    
Moisture  
Dew Point 14 °F    
Average Humidity 66    
Maximum Humidity 81    
Minimum Humidity 41    
Precipitation  
Precipitation 0.00 in - - ()
Sea Level Pressure  
Sea Level Pressure 30.04 in    
Wind  
Wind Speed 5 mph (NNE)    
Max Wind Speed 10 mph    
Max Gust Speed -    
Visibility 9 miles    
Events      
Averages and records for this station are not official NWS values.
T = Trace of Precipitation, MM = Missing Value Source: NWS Daily Summary

Daily Weather History Graph

Daily Weather History Graph

Search for Another Location

Airport or City:

Trip Planner

Search our weather history database for the weather conditions in past years. The results will help you decide how hot, cold, wet, or windy it might be!

Date:

Astronomy

Dec. 28, 2012 Rise Set
Actual Time 7:02 AM MST 4:50 PM MST
Civil Twilight 6:33 AM MST 5:18 PM MST
Nautical Twilight 6:02 AM MST 5:50 PM MST
Astronomical Twilight 5:31 AM MST 6:21 PM MST
Moon 5:27 PM MST (12/28) 6:59 AM MST (12/28)
Length of Visible Light 10h 45m
Length of Day
9h 48m
Full, 100% of the Moon is Illuminated
Dec 28
Full
Jan 4
Last Quarter
Jan 11
New
Jan 18
First Quarter
Jan 26
Full

Hourly Weather History & Observations

Time (MST) Temp. Windchill Dew Point Humidity Pressure Visibility Wind Dir Wind Speed Gust Speed Precip Events Conditions
12:07 AM 23.0 °F 12.4 °F 15.8 °F 74% 29.88 in 10.0 mi ENE 10.4 mph - N/A   Scattered Clouds
12:41 AM 23.0 °F 13.9 °F 15.8 °F 74% 29.89 in 10.0 mi ENE 8.1 mph - N/A   Mostly Cloudy
12:53 AM 23.0 °F 14.7 °F 17.1 °F 78% 29.90 in 10.0 mi ENE 6.9 mph - N/A   Overcast
1:32 AM 19.4 °F 10.4 °F 14.0 °F 80% 29.91 in 9.0 mi NE 6.9 mph - N/A   Scattered Clouds
1:53 AM 19.9 °F 12.1 °F 14.0 °F 78% 29.92 in 8.0 mi ENE 5.8 mph - N/A   Mostly Cloudy
2:53 AM 21.9 °F 15.7 °F 16.0 °F 78% 29.94 in 9.0 mi NE 4.6 mph - N/A   Overcast
3:12 AM 21.2 °F 14.9 °F 15.8 °F 80% 29.93 in 9.0 mi NNE 4.6 mph - N/A   Overcast
3:53 AM 21.0 °F - 15.1 °F 78% 29.94 in 8.0 mi Calm Calm - N/A   Partly Cloudy
4:53 AM 18.0 °F 12.7 °F 12.9 °F 81% 29.96 in 7.0 mi West 3.5 mph - N/A   Clear
5:53 AM 17.1 °F 8.7 °F 10.9 °F 77% 29.99 in 8.0 mi WNW 5.8 mph - N/A   Clear
6:53 AM 17.1 °F 7.6 °F 12.0 °F 81% 30.03 in 7.0 mi West 6.9 mph - N/A   Partly Cloudy
7:07 AM 17.6 °F 8.2 °F 12.2 °F 79% 29.99 in 6.0 mi WNW 6.9 mph - N/A   Haze
7:53 AM 19.9 °F 12.1 °F 15.1 °F 81% 30.05 in 7.0 mi WNW 5.8 mph - N/A   Mostly Cloudy
8:00 AM 21.2 °F 14.9 °F 15.8 °F 80% 30.02 in 7.0 mi West 4.6 mph - N/A   Scattered Clouds
9:53 AM 28.0 °F - 16.0 °F 61% 30.12 in 10.0 mi Calm Calm - N/A   Clear
10:53 AM 30.9 °F - 15.1 °F 52% 30.11 in 10.0 mi Calm Calm - N/A   Clear
11:53 AM 33.1 °F - 15.1 °F 48% 30.08 in 10.0 mi Calm Calm - N/A   Clear
12:53 PM 34.0 °F - 15.1 °F 46% 30.05 in 10.0 mi Calm Calm - N/A   Clear
1:53 PM 36.0 °F - 15.1 °F 43% 30.04 in 10.0 mi Calm Calm - N/A   Clear
2:53 PM 37.0 °F 32.4 °F 15.1 °F 41% 30.04 in 10.0 mi SE 5.8 mph - N/A   Clear
3:53 PM 37.0 °F - 15.1 °F 41% 30.06 in 10.0 mi Calm Calm - N/A   Clear
4:53 PM 34.0 °F 28.8 °F 14.0 °F 44% 30.10 in 10.0 mi East 5.8 mph - N/A   Clear
6:53 PM 30.0 °F 26.5 °F 14.0 °F 51% 30.17 in 10.0 mi ESE 3.5 mph - N/A   Scattered Clouds
7:53 PM 28.0 °F - 12.9 °F 53% 30.19 in 10.0 mi Calm Calm - N/A   Clear
9:53 PM 23.0 °F 17.0 °F 12.0 °F 63% 30.21 in 10.0 mi NE 4.6 mph - N/A   Clear
10:53 PM 21.9 °F - 10.9 °F 63% 30.23 in 10.0 mi Calm Calm - N/A   Clear
11:53 PM 19.9 °F 14.9 °F 10.0 °F 65% 30.24 in 10.0 mi NW 3.5 mph - N/A   Clear